Vero Beach, FL

7:11 AM EDT on September 28, 2016 (GMT -0400)
Vero Beach Municipal

Weather History for KVRB - May, 2012

Change the Weather History Date:

Monday, May 21, 2012

  Actual Average Record
Temperature  
Mean Temperature 75 °F 77 °F  
Max Temperature 87 °F 86 °F 95 °F (1962)
Min Temperature 63 °F 69 °F 60 °F (1994)
Degree Days  
Heating Degree Days 0 0  
Month to date heating degree days 0 0  
Since 1 July heating degree days 230 455  
Cooling Degree Days 10 12  
Month to date cooling degree days 263 216  
Year to date cooling degree days 892 674  
Growing Degree Days 26 (Base 50)    
Moisture  
Dew Point 61 °F    
Average Humidity 58    
Maximum Humidity 87    
Minimum Humidity 29    
Precipitation  
Precipitation 0.00 in 0.12 in 1.20 in (1946)
Month to date precipitation 2.26 1.91  
Year to date precipitation 11.21 13.92  
Sea Level Pressure  
Sea Level Pressure 29.98 in    
Wind  
Wind Speed 5 mph (NNE)    
Max Wind Speed 14 mph    
Max Gust Speed 17 mph    
Visibility 10 miles    
Events      
T = Trace of Precipitation, MM = Missing Value Source: NWS Daily Summary

Daily Weather History Graph

Daily Weather History Graph

Search for Another Location

Airport or City:

Trip Planner

Search our weather history database for the weather conditions in past years. The results will help you decide how hot, cold, wet, or windy it might be!

Date:

Astronomy

May. 21, 2012 Rise Set
Actual Time 6:29 AM EDT 8:07 PM EDT
Civil Twilight 6:03 AM EDT 8:33 PM EDT
Nautical Twilight 5:32 AM EDT 9:04 PM EDT
Astronomical Twilight 5:00 AM EDT 9:36 PM EDT
Moon 6:52 AM EDT (5/21) 8:54 PM EDT (5/21)
Length of Visible Light 14h 29m
Length of Day
13h 37m
New Moon, 0% of the Moon is Illuminated
May 21
New Moon
May 28
First Quarter
Jun 4
Full
Jun 11
Last Quarter
Jun 19
New

Hourly Weather History & Observations

Time (EDT) Temp. Heat Index Dew Point Humidity Pressure Visibility Wind Dir Wind Speed Gust Speed Precip Events Conditions
12:53 AM 71.1 °F - 64.0 °F 78% 30.00 in 10.0 mi North 4.6 mph - N/A   Clear
1:53 AM 68.0 °F - 63.0 °F 84% 29.98 in 10.0 mi NNW 3.5 mph - N/A   Clear
2:53 AM 66.0 °F - 63.0 °F 90% 29.96 in 10.0 mi Calm Calm - N/A   Clear
3:53 AM 66.0 °F - 62.1 °F 87% 29.95 in 10.0 mi Calm Calm - N/A   Clear
4:53 AM 66.0 °F - 62.1 °F 87% 29.96 in 10.0 mi Calm Calm - N/A   Clear
5:53 AM 66.0 °F - 62.1 °F 87% 29.97 in 10.0 mi Calm Calm - N/A   Clear
6:53 AM 64.0 °F - 61.0 °F 90% 29.99 in 10.0 mi Calm Calm - N/A   Clear
7:53 AM 73.0 °F - 64.0 °F 73% 30.00 in 10.0 mi Calm Calm - N/A   Clear
8:53 AM 79.0 °F - 57.9 °F 48% 30.01 in 10.0 mi NW 4.6 mph - N/A   Clear
9:53 AM 82.0 °F 81.3 °F 54.0 °F 38% 30.01 in 10.0 mi NW 6.9 mph - N/A   Clear
10:53 AM 84.0 °F 82.6 °F 54.0 °F 35% 30.01 in 10.0 mi NW 4.6 mph - N/A   Clear
11:53 AM 86.0 °F - 52.0 °F 31% 30.00 in 10.0 mi NNW 6.9 mph - N/A   Clear
12:53 PM 87.1 °F - 51.1 °F 29% 30.00 in 10.0 mi NW 10.4 mph 17.3 mph N/A   Clear
1:53 PM 84.9 °F 84.8 °F 60.1 °F 43% 29.98 in 10.0 mi ENE 9.2 mph - N/A   Partly Cloudy
2:53 PM 84.0 °F 84.4 °F 61.0 °F 46% 29.97 in 10.0 mi NE 11.5 mph - N/A   Clear
3:53 PM 82.9 °F 84.0 °F 63.0 °F 51% 29.96 in 10.0 mi ENE 11.5 mph - N/A   Partly Cloudy
4:53 PM 82.9 °F 83.7 °F 62.1 °F 49% 29.95 in 10.0 mi ENE 11.5 mph - N/A   Clear
5:53 PM 81.0 °F 82.5 °F 64.0 °F 56% 29.94 in 10.0 mi ENE 9.2 mph - N/A   Clear
6:53 PM 80.1 °F 81.9 °F 64.9 °F 60% 29.94 in 10.0 mi East 6.9 mph - N/A   Clear
7:53 PM 77.0 °F - 64.9 °F 66% 29.94 in 10.0 mi East 5.8 mph - N/A   Clear
8:53 PM 73.9 °F - 64.0 °F 71% 29.96 in 10.0 mi East 3.5 mph - N/A   Clear
9:53 PM 70.0 °F - 64.0 °F 81% 29.97 in 10.0 mi ENE 3.5 mph - N/A   Clear
10:53 PM 71.1 °F - 64.9 °F 81% 29.99 in 10.0 mi Calm Calm - N/A   Clear
11:53 PM 69.1 °F - 64.0 °F 84% 29.99 in 10.0 mi Calm Calm - N/A   Clear